Regional Weather Roundup
Issued by NWS

Home | Current Version | Previous Version | Graphics & Text | Print | Product List | Glossary On
Versions: 1 2 3 4 5 6 7 8 9 10 11 12 13 14 15 16 17 18 19 20 21 22 23 24 25 26 27 28 29 30 31 32 33 34 35 36 37 38 39 40 41 42 43 44 45 46 47 48 49 50
000
ASUS43 KMKX 301511
RWRWI

WISCONSIN REGIONAL WEATHER ROUNDUP
NATIONAL WEATHER SERVICE MILWAUKEE/SULLIVAN WI
1000 AM CDT MON MAY 30 2016

NOTE: "FAIR" INDICATES FEW OR NO CLOUDS BELOW 12,000 FEET WITH NO
SIGNIFICANT WEATHER AND/OR OBSTRUCTIONS TO VISIBILITY.

WIZ001-002-006>008-014>016-023>028-301600-
NORTHWEST WISCONSIN

CITY           SKY/WX    TMP DP  RH WIND       PRES   REMARKS
SUPERIOR ARPT  SUNNY     73  56  54 SW5       29.97S
ASHLAND        SUNNY     72  56  57 W8        29.98S
HAYWARD        SUNNY     70  54  56 VRB6      30.01F
SIREN          SUNNY     73  54  52 SW9       30.01S
CUMBERLAND     SUNNY     70  54  56 W9        30.02S
RICE LAKE      SUNNY     72  56  57 CALM      30.04R
CHETEK         SUNNY     71  58  64 SW5       30.03S
LADYSMITH      SUNNY     71  55  57 W5        30.04S
EAU CLAIRE     MOSUNNY   72  56  57 S7        30.02R
MENOMONIE      PTSUNNY   74  61  63 SW5       30.03S
NEW RICHMOND   CLOUDY    70  60  69 S5        30.02F
OSCEOLA        CLOUDY    71  65  81 CALM      30.04S
$$

WIZ003>005-009-010-017-018-301600-
NORTH CENTRAL WISCONSIN

CITY           SKY/WX    TMP DP  RH WIND       PRES   REMARKS
MANITOWISH WTR NOT AVBL
ARBOR VITAE    SUNNY     70  56  60 NW7       30.01S
WOODRUFF       SUNNY     70  56  60 NW7       30.01S
RHINELANDER    SUNNY     70  51  51 W17       30.03R
EAGLE RIVER      N/A     68  49  50 W17G24    30.01S
LAND O LAKES   SUNNY     68  52  56 NW9       30.01S
PHILLIPS       SUNNY     68  53  58 W3        30.02S
TOMAHAWK       SUNNY     69  51  52 NW10      30.03S
MEDFORD        SUNNY     68  54  60 W5        30.03S
MERRILL        SUNNY     69  56  62 W7        30.03S
$$

WIZ029-030-035-036-043>047-301600-
CENTRAL WISCONSIN

CITY           SKY/WX    TMP DP  RH WIND       PRES   REMARKS
WAUSAU         SUNNY     73  52  47 NW7       30.01S
MOSINEE        SUNNY     70  52  52 NW8       30.04S
MARSHFIELD     SUNNY     73  50  44 NW8       30.03R
STEVENS POINT  SUNNY     71  47  42 NW6       30.03S
WAUPACA        SUNNY     76  52  43 NW6       30.02F
WAUTOMA        PTSUNNY  N/A N/A N/A VRB6      30.03S
WISC RAPIDS    SUNNY     75  49  39 N7        30.04S
CAMP DOUGLAS   CLOUDY    71  70  97 W3        30.04S
$$

WIZ011>013-019>022-031-037>040-048>050-301600-
NORTHEAST WISCONSIN

CITY           SKY/WX    TMP DP  RH WIND       PRES   REMARKS
ANTIGO         SUNNY     68  55  62 W12       30.03S
SHAWANO        SUNNY     74  53  47 NW9       30.01S
OCONTO         SUNNY     73  54  50 NW8       29.99S
STURGEON BAY   NOT AVBL
GREEN BAY      SUNNY     74  57  55 NW6       30.01R
MANITOWOC      SUNNY     73  60  63 NW7       30.02R
APPLETON       MOSUNNY   72  54  53 VRB3      30.01
CLINTONVILLE   SUNNY     72  46  40 NW8       30.01F
OSHKOSH        SUNNY     73  58  59 N6        30.02S
$$

WIZ032>034-041-042-053>061-301600-
SOUTHWEST WISCONSIN

CITY           SKY/WX    TMP DP  RH WIND       PRES   REMARKS
LA CROSSE      MOSUNNY   70  61  73 S6        30.04R
SPARTA         CLOUDY    71  60  68 W5        30.05S
VIROQUA        MOSUNNY   74  57  55 SW7       30.08R
BOSCOBEL       SUNNY     76  60  57 CALM      30.06R
PRAIRIE DU CHI MOSUNNY   72  59  64 CALM      30.06S
PLATTEVILLE    SUNNY     74  58  58 N6        30.07S
$$

WIZ056-057-062-063-064-067-068-301600-
SOUTH CENTRAL WISCONSIN

CITY           SKY/WX    TMP DP  RH WIND       PRES   REMARKS
REEDSBURG      SUNNY     72  59  63 W3        30.04S
BARABOO/DELLS  MOSUNNY   74  55  52 NW8       30.04F
LONE ROCK      SUNNY     73  62  68 CALM      30.05S
MINERAL POINT  SUNNY     75  55  50 NW6       30.07S
MADISON        MOSUNNY   74  61  63 N6        30.04R
MIDDLETON      SUNNY     74  61  61 NW7       30.05S
WATERTOWN      SUNNY     73  62  67 W5        30.03R
MONROE         SUNNY     75  59  57 W6        30.05S
JANESVILLE     SUNNY     79  59  50 SW7       30.03R HX  80
$$

WIZ051-052-058>065-066-070>072-301600-
SOUTHEAST WISCONSIN

CITY           SKY/WX    TMP DP  RH WIND       PRES   REMARKS
MILWAUKEE      MOSUNNY   77  57  50 W8        30.01F
WAUKESHA       SUNNY     72  59  64 W7        30.04S
MILWAUKEE/TIMM SUNNY     75  55  50 MISG      30.02F
RACINE         SUNNY     77  56  48 VRB3      30.03F
BURLINGTON     SUNNY     75  56  51 NW6       30.03R
KENOSHA        SUNNY     76  59  55 W7        30.02F
FOND DU LAC    SUNNY     74  62  66 N5        30.02S
SHEBOYGAN      PTSUNNY   73  59  61 W5        30.01S
WEST BEND      SUNNY     73  59  60 NW5       30.02S
JUNEAU         SUNNY     72  61  67 NW3       30.04S
$$

LSZ147-162-301600-
LAKE SUPERIOR

STATION/POSITION TIME  TEMP    WIND        PRES    WAVE
                       AIR SEA DIR/SP/G            HT/PER
                 (UTC) (F)     (DEG/KT/KT) (MB)    (FT/S)
W MID LAKE BUOY  1450   44 38  250/ 12/ 12 1014.0S   1/ 4
DEVILS ISLAND    1500   56     230/ 14/ 16 1014.5S
SAXON HARBOR     1400   68     270/  4/ 10 1014.6S
$$

LMZ867-665-643>646-301600-
LAKE MICHIGAN

STATION/POSITION TIME  TEMP    WIND        PRES    WAVE
                       AIR SEA DIR/SP/G            HT/PER
                 (UTC) (F)     (DEG/KT/KT) (MB)    (FT/S)
CHAMBERS ISLAND  1400   67     220/  3/  6 1015.2
N MID LAKE BUOY  1450   52 48  220/  8/  8 1014.6F   1
NORTHPORT PIER   1400   68     250/  6/ 12 1014.6F
KEWAUNEE LAKESHO 1400   71     280/  4/  9 1015.3R
SHEBOYGAN LAKESH 1500   62     120/  3/  3 1016.5R
PORT WASHINGTON  1430   68     180/  4/ 25 1016.9S
S MID LAKE BUOY  1450   58 54  240/  2/  2 1016.4F   0
KENOSHA   LAKESH 1500   67     160/  2/  4 1016.3S
$$

TC  - TEMPERATURE IN CELSIUS
VSB - VISIBILITY IN STATUTE MILES
WCI - WIND CHILL INDEX
HX  - HEAT INDEX





USA.gov is the U.S. government's official web portal to all federal, state and local government web resources and services.